(342883) = 2008 YG64

Discovered at Mount Lemmon on 2008-12-30 by Mt. Lemmon Survey.

Orbit

Orbit type: Main Belt

Note: WebGL enabled browser required.

epoch2024-03-31.0
epoch JD2460400.5
perihelion date2022-07-15.13388
perihelion JD2459775.63388
argument of perihelion (°)244.86496
ascending node (°)191.29933
inclination (°)3.59566
eccentricity0.0703407
perihelion distance (AU)2.5951984
Tisserand w.r.t. Jupiter3.3
ΔV w.r.t. Earth (km/sec)10.1
semimajor axis (AU)2.7915585
mean anomaly (°)132.04462
mean daily motion (°/day)0.21131670
aphelion distance (AU)2.988
period (years)4.66
P-vector [x]0.23948788
P-vector [y]0.91184266
P-vector [z]0.33344942
Q-vector [x]-0.97082159
Q-vector [y]0.22924932
Q-vector [z]0.07035758
absolute magnitude16.87
phase slope0.15
uncertainty0
referenceMPEC 2024-F14
observations used259
oppositions13
arc length (days)6922
first opposition used2005
last opposition used2024
residual rms (arc-secs)0.70
perturbers coarse indicatorM-v
perturbers precise indicator003Ek
first observation date used2005-04-04.0
last observation date used2024-03-17.0
computer nameMPCLINUX
JD of orbit computation2456731.437331
perihelion JD uncertainty (days)2.5280E-04
argument of perihelion uncertainty (°)1.0556E-04
ascending node uncertainty (°)8.9307E-05
inclination uncertainty (°)6.4507E-06
eccentricity uncertainty 4.3786E-08
perihelion distance uncertainty (AU)1.1549E-07
Minimum Orbit Intersection Distances (in AU)
for orbit epoch: 2460400.5, reference: E2024-F14
Mercury2.28967
Venus1.87597
Earth1.61314
Mars1.02483
Jupiter2.19039
Saturn6.44383
Uranus15.6369
Neptune27.1514

Observations

263 total observations over interval: 2005 04 04.36385 – 2024 03 17.597549
These data are available for download (format description).

Date (UT) J2000 RA J2000 Dec Magn Location Ref
2005 04 04.36385 12 26 18.15 -03 02 34.2 20.0 R G96 – Mt. Lemmon Survey MPS 339886
2005 04 04.37012 12 26 17.84 -03 02 31.8 19.8 R G96 – Mt. Lemmon Survey MPS 339886
2005 04 04.37643 12 26 17.52 -03 02 29.7 19.6 R G96 – Mt. Lemmon Survey MPS 339886
2005 04 04.38274 12 26 17.22 -03 02 27.2 20.0 R G96 – Mt. Lemmon Survey MPS 339886
2005 05 13.25314 12 07 26.24 -00 16 12.9 21.1 R G96 – Mt. Lemmon Survey MPS 339886
2005 05 13.26323 12 07 26.17 -00 16 12.2 20.9 R G96 – Mt. Lemmon Survey MPS 339886
2005 05 13.27332 12 07 26.06 -00 16 11.4 21.7 R G96 – Mt. Lemmon Survey MPS 339886
2005 05 13.28343 12 07 25.99 -00 16 10.0 21.5 R G96 – Mt. Lemmon Survey MPS 339886
2007 09 14.26153 00 35 35.41 +04 44 47.2 20.1 V G96 – Mt. Lemmon Survey MPS 339886
2007 09 14.26757 00 35 35.16 +04 44 45.0 20.5 V G96 – Mt. Lemmon Survey MPS 339886
2007 09 14.27358 00 35 34.90 +04 44 42.9 20.4 V G96 – Mt. Lemmon Survey MPS 339886
2007 09 14.27960 00 35 34.69 +04 44 41.2 20.4 V G96 – Mt. Lemmon Survey MPS 339886
2007 10 07.24385 00 18 20.77 +02 21 43.3 20.6 V G96 – Mt. Lemmon Survey MPS 339886
2007 10 07.24935 00 18 20.55 +02 21 41.2 20.7 V G96 – Mt. Lemmon Survey MPS 339886
2007 10 07.25486 00 18 20.26 +02 21 39.2 20.8 V G96 – Mt. Lemmon Survey MPS 339886
2007 10 07.26043 00 18 20.01 +02 21 37.0 20.3 V G96 – Mt. Lemmon Survey MPS 339886
2007 10 19.24418 00 09 57.74 +01 09 44.3 20.6 V G96 – Mt. Lemmon Survey MPS 340809
2007 10 19.24961 00 09 57.56 +01 09 42.4 20.6 V G96 – Mt. Lemmon Survey MPS 340809
2007 10 19.25505 00 09 57.34 +01 09 40.6 20.4 V G96 – Mt. Lemmon Survey MPS 340809
2007 10 19.26064 00 09 57.02 +01 09 38.5 19.9 V G96 – Mt. Lemmon Survey MPS 340809
2008 12 30.32747 08 27 28.15 +13 38 26.6 20.6 V G96 – Mt. Lemmon Survey MPS 271866
2008 12 30.34074 08 27 27.61 +13 38 27.9 20.9 V G96 – Mt. Lemmon Survey MPS 271866
2008 12 30.34969 08 27 27.21 +13 38 29.1 21.0 V G96 – Mt. Lemmon Survey MPS 271866
2008 12 30.35865 08 27 26.85 +13 38 29.6 20.8 V G96 – Mt. Lemmon Survey MPS 271866
2008 12 31.36565 08 26 45.53 +13 40 12.5 21.0 V 691 – Steward Observatory, Kitt Peak-Spacewatch MPS 271866
2008 12 31.38399 08 26 44.74 +13 40 14.4 20.5 V 691 – Steward Observatory, Kitt Peak-Spacewatch MPS 271866
2008 12 31.40209 08 26 43.96 +13 40 16.7 20.3 V 691 – Steward Observatory, Kitt Peak-Spacewatch MPS 271866
2009 01 18.34312 08 11 50.13 +14 26 57.9 20.4 V G96 – Mt. Lemmon Survey MPS 339886
2009 01 18.34835 08 11 49.84 +14 26 58.8 20.3 V G96 – Mt. Lemmon Survey MPS 339886
2009 01 18.35357 08 11 49.52 +14 27 00.0 20.3 V G96 – Mt. Lemmon Survey MPS 339886
2009 01 18.35884 08 11 49.23 +14 27 01.1 20.1 V G96 – Mt. Lemmon Survey MPS 339886
2009 02 02.19459 07 58 35.97 +15 19 07.9 20.9 V G96 – Mt. Lemmon Survey MPS 339886
2009 02 02.20063 07 58 35.72 +15 19 09.1 20.7 V G96 – Mt. Lemmon Survey MPS 339886
2009 02 02.20671 07 58 35.40 +15 19 10.6 20.4 V G96 – Mt. Lemmon Survey MPS 339886
2009 02 02.21286 07 58 35.04 +15 19 12.1 20.4 V G96 – Mt. Lemmon Survey MPS 339886
2011 07 02.36273 20 34 20.53 -13 29 50.5 21.2 V G96 – Mt. Lemmon Survey MPS 395101
2011 07 02.36793 20 34 20.31 -13 29 50.6 20.7 V G96 – Mt. Lemmon Survey MPS 395101
2011 07 02.37310 20 34 20.13 -13 29 51.6 21.5 V G96 – Mt. Lemmon Survey MPS 395101
2011 07 02.37839 20 34 19.92 -13 29 52.4 21.4 V G96 – Mt. Lemmon Survey MPS 395101
2011 07 26.39810 20 15 47.073 -14 31 10.05 21.1 g F51 – Pan-STARRS 1, Haleakala MPS 395101
2011 07 26.40829 20 15 46.534 -14 31 11.98 21.2 g F51 – Pan-STARRS 1, Haleakala MPS 395101
2011 07 26.41967 20 15 45.941 -14 31 14.04 21.0 r F51 – Pan-STARRS 1, Haleakala MPS 395101
2011 07 26.42943 20 15 45.420 -14 31 15.89 20.9 r F51 – Pan-STARRS 1, Haleakala MPS 395101
2012 10 07.33214 03 12 04.61 +15 27 56.3   691 – Steward Observatory, Kitt Peak-Spacewatch MPS 434186
2012 10 07.34980 03 12 04.14 +15 27 52.0   691 – Steward Observatory, Kitt Peak-Spacewatch MPS 434186
2012 10 07.36747 03 12 03.67 +15 27 48.7   691 – Steward Observatory, Kitt Peak-Spacewatch MPS 434186
2012 10 18.396856 03 06 01.367 +14 42 54.56 20.5 w F51 – Pan-STARRS 1, Haleakala MPS 435262
2012 10 18.411998 03 06 00.728 +14 42 50.43 20.3 w F51 – Pan-STARRS 1, Haleakala MPS 435262
2012 10 18.427168 03 06 00.095 +14 42 46.33 20.4 w F51 – Pan-STARRS 1, Haleakala MPS 435262
2012 10 18.442432 03 05 59.455 +14 42 42.35 20.9 w F51 – Pan-STARRS 1, Haleakala MPS 435262
2014 01 26.58326 10 53 49.743 +03 21 12.20 21.1 r F51 – Pan-STARRS 1, Haleakala MPS 500152
2014 01 26.59488 10 53 49.410 +03 21 14.09 21.2 r F51 – Pan-STARRS 1, Haleakala MPS 500152
2014 01 29.34209 10 52 34.14 +03 29 11.6   691 – Steward Observatory, Kitt Peak-Spacewatch MPS 500152
2014 01 29.35976 10 52 33.56 +03 29 15.0   691 – Steward Observatory, Kitt Peak-Spacewatch MPS 500152
2014 01 29.37744 10 52 33.00 +03 29 17.8   691 – Steward Observatory, Kitt Peak-Spacewatch MPS 500152
2014 02 10.44402 10 45 13.685 +04 18 02.84 20.5 i F51 – Pan-STARRS 1, Haleakala MPS 501588
2014 02 10.45637 10 45 13.125 +04 18 06.76 20.4 i F51 – Pan-STARRS 1, Haleakala MPS 501588
2014 02 10.46882 10 45 12.584 +04 18 10.15 20.4 i F51 – Pan-STARRS 1, Haleakala MPS 501588
2014 02 10.48131 10 45 12.025 +04 18 13.63 20.5 i F51 – Pan-STARRS 1, Haleakala MPS 501588
2014 02 24.699790 10 34 06.11 +05 36 38.7 20.5 V Q63 – Siding Spring-LCO A MPS 503905
2014 02 24.701300 10 34 06.04 +05 36 39.1 20.4 V Q63 – Siding Spring-LCO A MPS 503905
2014 02 24.702834 10 34 05.94 +05 36 40.1 20.3 V Q63 – Siding Spring-LCO A MPS 503905
2014 02 24.704416 10 34 05.86 +05 36 40.8 20.5 V Q63 – Siding Spring-LCO A MPS 503905
2014 02 24.705917 10 34 05.79 +05 36 40.8 20.4 V Q63 – Siding Spring-LCO A MPS 503905
2014 02 24.707485 10 34 05.70 +05 36 41.8 20.3 V Q63 – Siding Spring-LCO A MPS 503905
2014 02 24.708990 10 34 05.62 +05 36 42.3 20.5 V Q63 – Siding Spring-LCO A MPS 503905
2014 02 24.710489 10 34 05.55 +05 36 42.4 20.6 V Q63 – Siding Spring-LCO A MPS 503905
2014 02 24.712028 10 34 05.47 +05 36 43.1 20.8 V Q63 – Siding Spring-LCO A MPS 503905
2014 02 24.713562 10 34 05.40 +05 36 43.7 20.8 V Q63 – Siding Spring-LCO A MPS 503905
2014 02 26.46602 10 32 39.189 +05 47 09.62 20.4 w F51 – Pan-STARRS 1, Haleakala MPS 503905
2014 02 26.47761 10 32 38.585 +05 47 13.82 20.2 w F51 – Pan-STARRS 1, Haleakala MPS 503905
2014 02 26.47827 10 32 38.553 +05 47 14.12 20.3 w F51 – Pan-STARRS 1, Haleakala MPS 503905
2014 02 26.48917 10 32 37.994 +05 47 17.99 20.1 w F51 – Pan-STARRS 1, Haleakala MPS 503905
2014 02 26.48983 10 32 37.964 +05 47 18.18 20.3 w F51 – Pan-STARRS 1, Haleakala MPS 503905
2014 02 26.50073 10 32 37.406 +05 47 22.10 20.2 w F51 – Pan-STARRS 1, Haleakala MPS 503905
2014 02 26.50138 10 32 37.374 +05 47 22.33 20.3 w F51 – Pan-STARRS 1, Haleakala MPS 503905
2014 02 27.24095 10 32 01.28 +05 51 50.0 20.5 V 703 – Catalina Sky Survey MPS 503905
2014 02 27.24595 10 32 00.92 +05 51 51.8 20.8 V 703 – Catalina Sky Survey MPS 503905
2014 02 27.25096 10 32 00.72 +05 51 52.1 21.2 V 703 – Catalina Sky Survey MPS 503905
2014 02 27.25598 10 32 00.59 +05 51 54.4 19.5 V 703 – Catalina Sky Survey MPS 503905
2015 03 21.58824 16 47 22.420 -19 29 31.39 22.0 w F51 – Pan-STARRS 1, Haleakala MPS 595053
2015 03 21.59885 16 47 22.657 -19 29 30.82 21.9 w F51 – Pan-STARRS 1, Haleakala MPS 595053
2015 03 21.60951 16 47 22.908 -19 29 30.22 21.8 w F51 – Pan-STARRS 1, Haleakala MPS 595053
2015 05 20.31995 16 30 18.03 -17 26 21.4 21.2 V W84 – Cerro Tololo-DECam MPS 789850
2015 05 20.32322 16 30 17.85 -17 26 20.9   W84 – Cerro Tololo-DECam MPS 789850
2015 05 20.32644 16 30 17.69 -17 26 20.3   W84 – Cerro Tololo-DECam MPS 789850
2015 05 20.32970 16 30 17.52 -17 26 19.8   W84 – Cerro Tololo-DECam MPS 789850
2015 05 20.33294 16 30 17.35 -17 26 19.3   W84 – Cerro Tololo-DECam MPS 789850
2015 05 21.44496 16 29 20.894 -17 23 15.77 21.2 w F51 – Pan-STARRS 1, Haleakala MPS 608468
2015 05 21.45707 16 29 20.236 -17 23 13.67 21.2 w F51 – Pan-STARRS 1, Haleakala MPS 608468
2015 05 21.46918 16 29 19.601 -17 23 11.70 21.2 w F51 – Pan-STARRS 1, Haleakala MPS 608468
2015 05 23.34799 16 27 42.63 -17 17 51.8 21.3 V W84 – Cerro Tololo-DECam MPS 789850
2015 05 23.35121 16 27 42.45 -17 17 51.4   W84 – Cerro Tololo-DECam MPS 789850
